St.-Hubert, Quebec

9:20 AM EDT on May 24, 2017 (GMT -0400)
St.-Hubert

Weather History for CYHU - October, 2012

Change the Weather History Date:

Saturday, October 27, 2012

  Actual Average Record
Temperature  
Mean Temperature 54 °F -  
Max Temperature 59 °F 43 °F 68 °F (2000)
Min Temperature 49 °F 29 °F 25 °F (2015)
Degree Days  
Heating Degree Days 11    
Growing Degree Days 4 (Base 50)    
Moisture  
Dew Point 51 °F    
Average Humidity 89    
Maximum Humidity 100    
Minimum Humidity 72    
Precipitation  
Precipitation 0.00 in 0.13 in - ()
Sea Level Pressure  
Sea Level Pressure 30.05 in    
Wind  
Wind Speed 4 mph ()    
Max Wind Speed 12 mph    
Max Gust Speed -    
Visibility 4.9 miles    
Events      
Averages and records for this station are not official NWS values.
T = Trace of Precipitation, MM = Missing Value Source: Averaged Metar Reports

Daily Weather History Graph

Daily Weather History Graph

Search for Another Location

Airport or City:

Trip Planner

Search our weather history database for the weather conditions in past years. The results will help you decide how hot, cold, wet, or windy it might be!

Date:

Astronomy

Oct. 27, 2012 Rise Set
Actual Time 7:26 AM EDT 5:47 PM EDT
Civil Twilight 6:56 AM EDT 6:17 PM EDT
Nautical Twilight 6:21 AM EDT 6:52 PM EDT
Astronomical Twilight 5:47 AM EDT 7:27 PM EDT
Moon 4:35 PM EDT (10/27) 5:14 AM EDT (10/27)
Length of Visible Light 11h 21m
Length of Day
10h 20m
Waxing Gibbous, 96% of the Moon is Illuminated
Oct 27
Waxing Gibbous
Oct 29
Full
Nov 6
Last Quarter
Nov 13
New
Nov 20
First Quarter

Hourly Weather History & Observations

Time (EDT) Temp. Dew Point Humidity Pressure Visibility Wind Dir Wind Speed Gust Speed Precip Events Conditions
12:00 AM 51.8 °F 50.0 °F 94% 30.09 in 5.0 mi SSE 3.5 mph - N/A   Clear
2:00 AM 52 °F 50 °F 91% 30.08 in 4 mi ESE 3.5 mph - -   Mist
3:00 AM 51.8 °F 50.0 °F 94% 30.07 in 4.0 mi SSE 5.8 mph - N/A   Overcast
5:00 AM 53.6 °F 51.8 °F 94% 30.07 in 4.0 mi Variable 2.3 mph - N/A   Overcast
5:29 AM 51.8 °F 50.0 °F 94% 30.06 in 3.0 mi Calm Calm - N/A   Mostly Cloudy
5:42 AM 51.8 °F 50.0 °F 94% 30.06 in 2.2 mi Calm Calm - N/A   Mostly Cloudy
5:46 AM 50.0 °F 50.0 °F 100% 30.06 in 1.8 mi Calm Calm - N/A   Mostly Cloudy
6:00 AM 50.0 °F 48.2 °F 94% 30.06 in 1.0 mi North 2.3 mph - N/A   Mostly Cloudy
6:02 AM 50.0 °F 48.2 °F 94% 30.06 in 1.0 mi Calm Calm - N/A   Mostly Cloudy
6:15 AM 50.0 °F 48.2 °F 94% 30.06 in 2.0 mi NNW 4.6 mph - N/A   Overcast
6:18 AM 50.0 °F 48.2 °F 94% 30.07 in 1.8 mi NNW 3.5 mph - N/A   Overcast
6:59 AM 51.8 °F 50.0 °F 94% 30.08 in 2.0 mi NNE 4.6 mph - N/A   Overcast
7:00 AM 51.8 °F 50.0 °F 94% 30.08 in 2.0 mi NNE 3.5 mph - N/A   Overcast
7:21 AM 51.8 °F 51.8 °F 100% 30.07 in 2.2 mi NNE 3.5 mph - N/A   Overcast
7:46 AM 51.8 °F 51.8 °F 100% 30.07 in 1.8 mi NNE 5.8 mph - N/A   Overcast
8:00 AM 52 °F 51 °F 96% 30.08 in 1 mi NNE 5.8 mph - -   Mist
8:00 AM 51.8 °F 51.8 °F 100% 30.07 in 1.2 mi NNE 5.8 mph - N/A   Overcast
8:15 AM 51.8 °F 51.8 °F 100% 30.08 in 2.0 mi NNE 4.6 mph - N/A   Overcast
9:00 AM 51.8 °F 51.8 °F 100% 30.09 in 2.5 mi NE 4.6 mph - N/A   Overcast
9:21 AM 51.8 °F 51.8 °F 100% 30.09 in 2.5 mi NNE 8.1 mph - N/A   Overcast
10:00 AM 53.6 °F 51.8 °F 94% 30.08 in 2.5 mi NNE 8.1 mph - N/A   Overcast
10:05 AM 53.6 °F 51.8 °F 94% 30.08 in 3.0 mi NNE 8.1 mph - N/A   Overcast
10:30 AM 55.4 °F 51.8 °F 88% 30.08 in 3.0 mi NE 6.9 mph - N/A   Overcast
11:00 AM 57.2 °F 53.6 °F 88% 30.07 in 5.0 mi ENE 5.8 mph - N/A   Mostly Cloudy
11:14 AM 57.2 °F 53.6 °F 88% 30.07 in 6.0 mi NNE 6.9 mph - N/A   Haze
11:49 AM 57.2 °F 53.6 °F 88% 30.06 in 6.0 mi NE 8.1 mph - N/A   Haze
12:00 PM 57.2 °F 53.6 °F 88% 30.06 in 7.0 mi NE 5.8 mph - N/A   Overcast
1:00 PM 59.0 °F 53.6 °F 82% 30.03 in 7.0 mi North 9.2 mph - N/A   Overcast
1:26 PM 59.0 °F 53.6 °F 82% 30.02 in 7.0 mi NNE 9.2 mph - N/A   Mostly Cloudy
2:00 PM 59 °F 53 °F 74% 30.01 in 9 mi North 9.2 mph - -   Overcast
2:00 PM 59.0 °F 53.6 °F 82% 30.01 in 9.0 mi North 9.2 mph - N/A   Overcast
3:00 PM 59.0 °F 51.8 °F 77% 30.00 in 9.0 mi North 11.5 mph - N/A   Mostly Cloudy
4:00 PM 59.0 °F 50.0 °F 72% 29.99 in 9.0 mi NNE 11.5 mph - N/A   Overcast
5:00 PM 57.2 °F 50.0 °F 77% 29.99 in 9.0 mi NE 8.1 mph - N/A   Overcast
6:00 PM 57.2 °F 48.2 °F 72% 29.98 in 9.0 mi NNE 8.1 mph - N/A   Overcast
7:00 PM 55.4 °F 48.2 °F 77% 29.99 in 9.0 mi NE 5.8 mph - N/A   Overcast
8:00 PM 54 °F 48 °F 74% 30.00 in 10 mi North 5.8 mph - -   Overcast
8:00 PM 55.4 °F 48.2 °F 77% 30.00 in 9.0 mi North 5.8 mph - N/A   Overcast
9:00 PM 53.6 °F 46.4 °F 77% 29.99 in 9.0 mi NNE 6.9 mph - N/A   Mostly Cloudy
10:00 PM 53.6 °F 46.4 °F 77% 30.00 in 9.0 mi North 5.8 mph - N/A   Overcast
11:00 PM 51.8 °F 46.4 °F 82% 30.00 in 9.0 mi NNE 6.9 mph - N/A   Overcast